CAPE
428 468 406 341 360 300 330 320 299 259 0 0 77 128 304 497 867 926 866 858 1049 1197 900 770 346 866 573 36 0 7 1243 947 814 1593 2168 2517 2815 2907 3064 3194 3341 3398 3010 3206 3203 4044 3032 2561 2352 2868 2901 2784 2401 2060 2324 2866 3163 2998 3250 3479 3394 2770 2841 2696 2058 1864 760 260 594 969 545 492 1140 2171 1237 602 301 182 292 827 1168 1634 1794 2194 2272
477 452 438 342 329 355 337 331 327 219 79 0 220 173 171 599 712 640 703 953 1098 1114 954 898 534 900 604 100 0 128 1198 672 474 1799 2324 2592 2673 2902 3099 3096 3614 3687 3581 3569 3266 2795 2479 2102 1975 3130 2887 2543 2572 3008 2641 3569 2989 2965 2993 3077 2908 2783 2637 2033 2141 1615 993 404 353 604 207 568 1054 470 821 821 260 20 59 210 24 173 877 1563 1978
561 538 438 362 359 348 366 385 401 287 162 0 256 118 102 631 579 555 892 882 1103 1212 1169 1250 847 1218 718 397 8 370 886 684 478 1969 2632 2577 2614 2833 3041 3200 3666 3822 3745 3690 3182 2680 2186 2015 1961 2534 3142 3076 2772 3091 3117 3053 2358 2088 2475 2715 2698 3011 3223 2264 1951 1388 1552 1021 1694 839 364 547 422 613 781 640 150 42 37 158 139 207 264 506 1204
752 581 460 382 399 362 379 410 422 369 445 296 121 138 35 637 546 572 1046 1062 1142 1374 1528 1484 1233 1226 597 490 289 386 448 532 950 2111 2483 2574 2521 2770 2990 3207 3492 3454 3540 3550 3446 3082 2574 2297 2618 2139 2921 2970 2914 2850 2880 2278 2611 2273 2297 2926 2788 2270 1859 2017 2594 1865 1665 1320 256 447 309 333 479 275 428 492 138 67 85 24 214 272 356 450 713
572 656 578 504 411 385 422 477 468 453 443 393 133 172 8 670 570 694 1104 1219 1211 1610 1682 1555 1578 1178 882 591 480 502 684 629 656 1626 2122 2354 2264 2538 2879 2960 2983 3090 3056 3109 3109 3184 3348 3142 3307 2991 3259 3290 2916 2618 2642 2312 2434 2116 2060 2581 2767 2684 1744 1781 2181 2253 1663 2017 2343 797 918 677 814 370 350 266 770 180 103 12 331 140 225 476 910
543 565 541 527 478 479 509 490 478 467 411 416 266 74 35 414 574 768 1058 1342 1379 1489 1681 1496 1511 1038 930 554 488 284 438 330 381 404 1695 2010 1942 2360 2731 2706 2696 2740 2743 2523 2916 3012 3448 3201 2676 3552 3398 3425 3058 3062 2899 2727 2662 2112 2235 2643 2923 2922 1864 1674 1811 2220 2402 3154 1066 1099 686 508 481 566 227 241 266 1304 14 0 328 286 335 616 990
575 489 514 540 485 465 551 552 523 516 478 438 358 78 52 652 541 809 974 1354 1513 1475 1684 1395 1384 894 865 370 430 190 276 118 202 134 864 1663 1755 2030 2536 2458 2527 2540 2270 2550 2597 2825 3313 3196 2486 2899 3782 3288 3889 3169 3190 2582 2706 2288 2552 2774 2796 3120 2316 1730 1560 1848 1949 2402 1818 1257 1594 1220 797 558 212 1410 253 130 1472 127 7 234 401 656 714
572 520 532 523 527 532 555 578 556 524 531 489 447 119 72 683 572 842 892 1228 1701 1325 1694 1272 1233 472 706 378 541 165 134 41 136 94 180 1244 1635 1818 2011 2312 2166 2136 2033 2244 2536 2526 2964 2994 2361 2989 3650 3530 3329 2676 2440 2021 2261 2632 2794 2617 2863 2916 2889 2020 1810 1712 2087 1897 2457 1427 1965 1113 46 724 571 613 283 442 112 762 172 117 311 471 626
741 624 652 575 508 526 515 480 562 655 559 542 515 350 524 445 757 864 1002 948 1643 1165 1455 1112 964 343 321 184 491 456 74 72 264 619 284 590 1403 1653 1773 2060 2015 1862 2074 1815 2433 2634 2889 2818 3066 2865 3092 2793 3384 2236 2370 2236 2083 2100 3145 3067 3141 3174 3688 2624 1940 2056 2676 2192 1770 2039 1306 1246 198 446 249 449 924 503 458 574 386 178 257 260 552
717 813 899 722 546 508 510 489 454 732 638 616 592 542 741 518 954 824 1194 865 1386 1189 1250 1024 781 390 266 46 108 769 706 208 262 1033 250 142 1001 1497 1536 1830 1899 1664 2674 1854 2458 2518 2903 2758 3081 2789 3025 2930 2889 2399 2484 2154 1798 2912 3147 2979 3277 3734 3363 3128 2595 3242 3211 2662 2526 1532 1797 1626 784 867 234 21 736 402 438 560 515 220 87 175 566
722 708 910 768 572 559 629 639 542 543 760 690 663 640 1088 506 1204 863 1094 1066 1344 1170 957 1022 698 171 278 68 78 789 814 209 73 618 809 258 91 1288 1478 1744 1837 1593 2110 2324 2119 2609 2642 2847 3015 2746 2864 2831 2766 2055 2172 1771 2757 3100 3104 3335 3278 3028 3707 3496 4466 3818 2692 3350 2272 2236 1698 1522 1048 894 821 836 964 376 37 309 912 200 370 66 410
869 831 1089 813 538 532 604 654 637 593 787 767 730 702 1252 652 1131 1135 950 1328 1391 1080 710 912 670 200 174 223 138 692 866 242 69 299 615 270 394 1166 1530 1756 1818 1904 1799 2269 2078 2490 2535 2637 2646 2709 2790 2573 2583 2218 2671 1974 2730 2840 2992 3349 3174 2829 3106 3683 3287 3152 2862 3358 3052 3217 2504 2304 2092 1006 1233 611 1021 1037 739 624 688 787 1073 364 1144
923 910 1040 902 586 424 639 667 666 654 678 921 819 957 1232 1148 943 1314 1022 1443 1479 1124 698 603 664 311 175 353 184 384 730 320 69 158 146 78 529 846 1686 1728 1793 1970 1806 1757 2372 1894 2395 2468 2259 2412 2506 2665 2537 1907 2023 2611 2543 2662 2806 3032 3339 3287 3631 3150 2907 3093 3336 2997 2493 2710 2224 1963 1761 869 671 946 601 1124 313 331 519 524 742 851 654
987 1071 1063 900 653 506 662 695 683 712 748 1054 874 1174 1216 1416 1153 1232 1299 1289 1667 1279 764 568 574 504 170 315 323 319 392 360 122 117 20 114 142 865 1317 1705 1827 1851 1775 1753 1592 1818 2253 2319 2284 2262 2812 2300 2721 1978 1907 2207 2903 3085 2725 2788 2837 3368 3618 3508 3298 3221 2966 2855 2571 2398 2253 2123 2007 1796 999 859 395 949 686 561 376 1540 1393 1331 1634
1183 1313 1293 1132 926 610 545 557 827 785 793 1085 1063 1247 1196 1548 1357 1317 1401 1306 1664 1429 947 597 541 631 283 223 364 256 194 256 221 219 3 124 78 756 702 1302 1596 1870 1765 1702 1473 1527 2178 2164 2249 1987 2960 2556 2943 2720 2808 2332 2692 2648 3303 2653 2820 3033 3290 3275 2976 3187 3164 3085 3022 2799 2784 2914 2473 1491 1482 1059 254 787 694 798 1237 1124 1164 1237 1820
1148 1312 1266 1109 896 683 616 558 756 885 846 1120 1127 1272 1320 1484 1633 1384 1495 1386 1527 1685 1174 733 581 672 487 224 231 333 302 105 160 527 81 154 107 229 1033 1146 1529 1230 1660 1579 1628 1417 1851 2104 2346 2089 2262 3081 2616 2663 2737 2745 2696 2375 2470 3054 2449 3260 2706 2957 3066 3284 3077 3065 2885 2750 3171 2890 2354 2407 2625 2481 1870 1101 1539 1923 1523 1106 628 259 1810
1052 1305 1236 1172 967 787 669 548 863 1035 965 1118 1170 1223 1388 1540 1776 1605 1588 1515 1320 1773 1402 942 705 718 675 338 170 251 241 59 104 224 500 498 289 188 688 1079 1541 1478 1220 1531 1186 1790 1609 2108 2253 2182 2225 2810 2809 2665 2698 2678 2843 2787 2582 2684 2610 2642 2671 2589 2566 2544 2644 2572 2611 3028 3408 2935 2653 2786 2799 2565 2859 2647 2665 2523 1680 1691 1840 1278 1638
1253 1285 1206 1160 1109 857 753 915 971 1150 1080 1108 1161 1131 1362 1636 1894 1802 1828 1729 1369 1638 1599 1172 865 821 780 559 218 164 184 77 44 45 590 875 720 550 610 974 1204 1535 1332 1208 1339 942 2108 2762 2130 2210 2307 2637 2955 2728 2795 2846 2949 2600 3029 2716 2884 2701 2957 2869 2699 2298 2012 2112 2411 2169 2764 3275 3082 2950 2698 2358 3518 2192 2001 1964 1962 2046 1827 1628 1740
1258 1293 1180 1060 1001 974 807 916 1120 1230 1192 1090 1177 1129 1148 1669 1897 1974 1972 1959 1680 1599 1752 1451 1039 922 893 726 366 162 118 97 18 49 28 962 1080 871 879 913 971 1205 1394 1143 1312 1082 1427 2428 2051 2143 2460 2580 2810 2824 2792 2814 3110 2688 2677 2932 2866 2736 2801 2683 2813 2328 2361 2582 2548 2470 2134 2508 2872 2576 2600 2998 3755 2666 2166 2294 1953 2194 1560 1531 1640
1195 1312 1263 1034 904 875 916 979 894 1026 1259 1032 1029 1016 1241 1599 1976 2041 2088 2146 2058 1840 1934 1757 1297 967 936 808 502 250 145 80 26 50 2 112 1069 1136 1014 998 909 706 1242 1166 1114 1382 967 2187 2002 2092 2341 2506 2577 2745 2962 2725 2897 2760 2587 2930 2900 2918 2886 2778 2736 2852 2539 2236 2091 2184 2353 3013 3579 3211 2264 2355 3771 2734 2605 2616 2630 2808 2382 2203 2051
1232 1200 1266 1239 1108 1111 1138 1096 1011 933 1265 1310 1296 1384 1395 1581 1934 2112 2171 2243 2261 2134 2083 2070 1730 1185 960 845 608 376 184 71 29 33 23 0 99 933 1065 937 931 557 211 931 1137 1336 1130 1212 2031 2035 2408 2372 2330 2536 2834 2781 2719 2705 2511 2690 2747 2883 2826 2542 2645 2713 2638 2377 2362 2122 1803 2425 2768 2941 2944 3057 2826 3276 2915 2603 2405 2543 2479 2558 2201
1165 1288 1381 1279 1189 1056 1068 1073 1071 1257 1271 1352 1350 1428 1436 1588 1976 2203 2270 2305 2293 2255 2209 2273 2191 1715 1160 954 715 498 312 137 37 28 82 0 0 93 696 774 796 783 307 111 664 1358 1419 1176 1440 1814 2260 2322 2206 2156 2680 2737 2739 2658 2552 2641 2413 2610 2657 2492 2607 2657 2880 2948 2694 2253 2084 2377 2598 2377 3014 3164 2982 2619 2916 2969 2954 3292 3262 3051 2673
1114 1395 1442 1422 1324 1249 1118 1036 1038 1160 1281 1331 1351 1377 1430 1596 1956 2211 2314 2376 2356 2326 2269 2346 2412 2242 1723 1326 1008 703 488 273 96 41 91 45 6 19 151 380 368 681 666 280 90 1000 1607 1455 1367 1475 1580 1974 2129 2128 2281 2608 2655 2621 2552 2607 2551 2879 2671 2591 2676 2744 2732 2808 2904 2948 2625 2584 3121 2646 2599 2699 2808 2630 2547 2630 2741 2914 2903 2958 3016
1094 1192 1350 1274 1274 1295 1238 1104 1067 1216 1462 1348 1346 1340 1343 1383 1770 2190 2336 2401 2393 2380 2371 2472 2537 2473 2201 1758 1474 1098 764 490 262 130 132 116 45 27 120 251 277 306 733 686 226 165 1281 1651 1570 1556 1473 1498 1699 2031 2075 2177 2502 2542 2542 2560 2510 2438 2838 2592 2692 2820 2884 2921 2900 2700 2730 2806 2700 2769 2809 2664 2542 2585 2526 2586 2801 3006 2894 2950 3050
878 1049 1138 1181 1196 1211 1242 1328 1243 1490 1816 1725 1662 1610 1616 1612 1683 2176 2407 2520 2537 2529 2460 2510 2615 2637 2419 2059 1828 1472 1109 838 534 321 283 269 175 104 130 222 308 301 419 766 687 230 295 1510 1715 1817 1766 1608 1775 1926 2052 2008 2245 2448 2523 2525 2461 2323 2333 2659 2631 2714 3304 3015 2951 2806 2548 2412 2434 2432 2479 2749 2783 2554 2349 2265 2335 2554 3097 3099 3193
787 887 1090 1169 1265 1337 1413 1423 1346 1499 1744 1727 1726 1704 1642 1615 1686 2020 2337 2549 2602 2565 2578 2520 2530 2653 2600 2354 2097 1742 1383 1088 896 635 465 436 412 346 278 287 356 392 383 547 809 652 310 770 1611 1838 2096 1913 1798 1988 2020 1983 2040 2381 2476 2498 2470 2435 2310 2191 2540 2677 2987 2918 2866 2912 2811 2516 2219 2326 2398 2495 2578 2588 2571 2536 2475 2352 2476 2639 2694
800 1001 1144 1237 1364 1578 1596 1502 1393 1476 1529 1664 1666 1639 1638 1582 1550 1737 1984 2247 2506 2655 2735 2677 2596 2660 2694 2573 2307 1926 1600 1289 1077 913 727 600 508 527 512 434 426 454 426 496 668 890 708 465 926 1591 2055 2233 1966 1879 2005 1951 1950 2197 2448 2481 2474 2426 2558 2466 2094 2210 2656 2961 2920 2864 2818 2645 2383 2122 2148 2364 2471 2416 2274 2434 2668 2616 2556 2848 3085
1001 1007 1025 1145 1396 1565 1594 1561 1445 1451 1454 1494 1504 1570 1580 1549 1554 1635 1859 2048 2194 2413 2604 2780 2742 2731 2721 2638 2465 2174 1778 1479 1186 1052 963 835 649 564 620 575 506 440 435 442 633 805 1025 844 779 1032 1548 2123 2206 1913 1878 1914 1817 1906 2319 2452 2457 2477 2421 2546 2532 2174 2178 2475 2755 2853 2816 2694 2428 2277 2204 2125 2122 2241 2561 2704 2753 2873 2983 2892 2818
1096 998 955 1191 1307 1359 1479 1589 1606 1528 1511 1445 1402 1411 1436 1491 1539 1579 1717 1920 2162 2384 2589 2719 2894 2898 2753 2591 2385 2249 2026 1756 1389 1268 1265 1203 911 704 700 692 627 485 464 434 536 739 1010 1295 1213 1136 1240 1599 2122 2111 1922 1905 1825 1745 1890 2323 2386 2451 2468 2428 2443 2502 2487 2427 2472 2528 2552 2528 2482 2896 2614 2436 2277 2314 2450 2702 2737 2743 2888 3116 3164
1033 948 935 1042 1282 1544 1547 1691 1675 1638 1585 1528 1483 1485 1499 1506 1511 1584 1670 1956 2266 2453 2640 2792 2875 3007 2933 2678 2450 2245 2131 2007 1767 1532 1426 1332 1188 923 802 867 799 601 485 525 447 728 868 1262 1629 1624 1482 1548 1772 2100 2241 2096 1943 1888 1847 1986 2188 2257 2413 2493 2431 2340 2351 2454 2502 2507 2475 3289 2995 3065 2520 2311 2287 2511 2799 2542 2641 2928 2857 2856 2972
982 988 942 1023 1234 1562 1991 2060 1721 1695 1720 1639 1521 1489 1601 1668 1740 1734 1743 1851 1999 2299 2576 2771 2860 2960 2962 2785 2516 2280 2152 2017 1948 1769 1525 1366 1234 1011 838 880 1036 917 738 750 658 532 881 1013 1495 1992 1946 1826 1830 1935 2116 2237 2192 2066 2054 2054 2078 2074 2113 2357 2523 2481 2337 2264 2236 2252 2347 3163 4028 3774 3033 2165 1987 1908 1950 2310 2465 3021 3285 2933 2920
524 616 758 812 937 1090 1349 2158 2241 2385 2578 2272 2165 1701 1596 1670 1828 1943 1887 1819 1921 2104 2302 2519 2796 2960 2978 2881 2709 2488 2183 2006 1865 1827 1642 1399 1183 995 824 784 1075 1188 1035 985 935 665 897 1094 1238 1798 2188 2167 2053 2017 2110 2220 2334 2301 2224 2225 2172 2146 2010 2024 2266 2458 2448 2351 2347 2364 2357 2340 2342 2392 2588 2410 1956 1782 1774 1782 1888 2076 2713 3938 3582
470 831 761 1005 1060 1210 1053 1207 2000 2223 2206 1887 2044 2170 1868 1862 1866 1926 1967 1899 1896 1973 2185 2396 2501 2603 2934 2996 2883 2667 2321 1945 1798 1828 1654 1396 1208 1075 898 814 990 1304 1283 1175 1129 884 799 1321 1380 1594 2127 2352 2305 2158 2194 2253 2326 2442 2430 2252 2110 2108 2102 2007 1944 2094 2354 2417 2391 2416 2439 2389 2231 2660 3340 2569 2152 1806 1689 1709 1749 1809 1917 2115 3012
333 288 480 411 894 992 1200 891 1113 1286 1790 1732 1798 2011 2005 1900 2140 1938 2025 2044 2015 1989 2098 2114 2238 2353 2547 2876 2911 2732 2468 2013 2019 1966 1795 1526 1370 1279 1117 969 1016 1333 1434 1360 1296 1160 955 1283 1659 1671 1962 2349 2441 2370 2272 2303 2350 2449 2535 2462 2171 1927 1803 1976 2022 1962 2038 2289 2402 2334 2279 2264 2246 2025 1830 2483 2497 2048 1774 1667 1684 1730 1758 1862 2058
198 195 90 0 43 304 690 1046 1321 1234 1196 1302 1546 1608 1959 1986 2030 2164 1937 1859 1844 1981 1944 1950 1886 1906 2280 2604 2771 2707 2466 2118 2194 2192 2064 1792 1559 1463 1350 1185 1135 1298 1550 1532 1488 1442 1319 1199 1637 1831 1891 2193 2445 2499 2406 2289 2304 2365 2484 2572 2356 2053 1733 1600 1884 2057 2034 2037 2173 2242 2137 1980 1820 1714 1645 1802 2389 2251 1869 1702 1631 1619 1654 1745 1899
23 123 113 146 0 76 254 626 1008 1102 1373 1389 1196 1047 1204 1651 1950 2132 2271 2110 1969 1789 1627 1682 1882 1919 1902 2366 2719 2581 2424 2355 2309 2306 2298 2106 1802 1604 1542 1441 1318 1269 1528 1639 1626 1600 1562 1436 1451 1915 1956 2029 2281 2509 2476 2365 2306 2336 2395 2465 2410 2262 2010 1756 1547 1662 2022 2064 2027 2042 2062 1969 1819 1637 1548 1845 2388 2419 2355 2173 2069 1955 1898 1944 2119
110 17 38 184 248 35 234 36 814 1304 1536 1451 1521 1527 1244 980 1104 1646 1803 2031 1928 1904 1783 1636 1591 1572 1569 2393 2731 2512 2424 2503 2442 2395 2416 2353 2097 1808 1651 1621 1540 1360 1377 1674 1739 1700 1648 1570 1437 1591 2080 2058 2150 2452 2562 2520 2477 2467 2501 2517 2484 2398 2276 2115 2100 1890 1892 2027 2023 1982 1973 1994 2002 1922 1820 1712 1872 2734 2972 3096 3066 2936 2800 2708 2676
117 106 122 70 0 0 0 0 436 920 1535 1912 1935 1976 1600 1181 1465 1298 1224 1542 1675 1928 2008 1977 1814 1464 1362 2365 2849 2599 2552 2554 2540 2469 2479 2489 2351 2056 1786 1733 1683 1536 1379 1521 1756 1721 1665 1614 1522 1440 1558 2100 2181 2243 2518 2584 2526 2425 2404 2457 2500 2470 2431 2242 2108 2263 2615 3016 3165 3364 3142 2120 2146 2215 2278 2265 2117 2077 2653 3153 3580 3803 3920 3955 3948
0 0 106 176 221 120 249 560 700 908 1268 1560 1608 1564 1829 1943 1223 1366 1360 1448 1510 1626 1655 1728 1667 1565 1476 2130 2889 2784 2632 2605 2607 2562 2504 2541 2516 2306 1976 1808 1753 1638 1503 1420 1729 1758 1711 1699 1622 1544 1488 1460 1838 2177 2279 2440 2488 2468 2434 2407 2428 2432 2422 2372 2225 2076 2064 2168 2319 3362 4491 3959 2730 2498 2502 2545 2601 2463 2234 2274 2790 3289 3582 3778 3950
0 0 0 94 79 110 310 476 675 815 1139 1405 1533 1623 1893 2073 1994 1290 1337 1389 1512 1509 1515 1601 1502 1440 1631 2206 2921 2932 2743 2685 2679 2654 2595 2580 2591 2496 2238 1914 1814 1709 1585 1474 1715 1790 1806 1824 1855 1839 1758 1593 1455 1965 1864 2148 2379 2430 2427 2402 2382 2336 2390 2414 2386 2275 2106 1973 1939 1960 2116 2690 3545 3669 3300 3090 2887 2794 2627 2496 2502 2780 2938 3028 3184
0 0 0 0 87 100 371 521 626 796 1137 1533 1768 1854 1921 1912 2010 2080 1664 1035 1502 1497 1578 1549 1558 1575 1830 2509 3071 3080 2919 2808 2762 2758 2720 2702 2664 2634 2446 2132 1922 1803 1706 1706 1745 1892 1929 1965 2051 2123 2076 1978 1765 1751 1833 1925 2051 2237 2362 2398 2407 2372 2367 2414 2412 2387 2309 2204 2100 1984 1852 1842 2100 2580 3307 3670 3655 3512 3294 3089 2916 2878 2891 2890 2922
0 0 0 0 0 0 248 617 759 858 1120 1526 1894 2044 2074 2019 2146 2086 2200 1993 1328 1272 1576 1589 1658 1698 1926 2659 3236 3215 3069 2955 2909 2911 2890 2821 2804 2768 2623 2365 2100 1896 1786 1863 1964 2045 2115 2190 2264 2316 2262 2275 2174 1979 1911 1999 1993 2020 2134 2269 2318 2327 2377 2408 2403 2394 2397 2349 2295 2287 2260 2118 1968 1931 2080 2736 3308 3442 3556 3484 3380 3299 3245 3199 3249
21 7 0 0 0 186 450 671 855 913 1021 1425 1764 2011 2165 2212 2436 2688 2754 2283 1847 1172 1325 1705 1637 1912 2532 2854 3284 3342 3249 3188 3128 3145 3056 2965 2967 2944 2813 2601 2331 2048 1857 1864 2130 2294 2331 2471 2603 2554 2462 2438 2454 2305 2116 2122 2113 2057 2042 2084 2163 2251 2362 2392 2402 2416 2456 2500 2469 2487 2553 2568 2493 2316 2139 2131 2399 2914 3179 3281 3350 3471 3638 3642 3591
0 0 0 0 0 354 758 944 992 972 1279 1668 2136 2746 3428 3713 3728 3975 3810 3275 2392 1496 856 1278 1678 1677 2296 3253 3540 3533 3406 3366 3373 3364 3265 3158 3205 3190 3068 2857 2558 2256 2010 1897 2009 2375 2499 2583 2802 2840 2761 2590 2642 2686 2473 2323 2271 2205 2071 2031 2060 2144 2306 2370 2436 2481 2531 2585 2615 2620 2633 2778 2951 2882 2677 2442 2330 2394 2614 2926 3181 3325 3582 3820 3834
0 0 0 0 32 254 511 808 928 929 1273 1732 2795 3617 3945 4298 4718 4844 4443 3547 2773 1769 1014 1009 1680 2635 2506 2855 3588 3706 3604 3528 3574 3608 3520 3408 3428 3468 3406 3198 2862 2490 2214 2008 1967 2208 2504 2604 2771 2986 3027 2911 2763 2892 2817 2695 2589 2472 2404 2279 2178 2123 2199 2355 2423 2525 2571 2634 2699 2782 2850 2869 2954 3143 3250 3144 2937 2681 2478 2575 2728 2999 3292 3606 3750
0 0 0 0 165 311 512 737 864 863 1158 1734 2420 3143 3616 4092 4562 4714 4683 4311 3213 1993 1487 1382 1278 2223 3166 3470 3780 3840 3804 3705 3773 3857 3755 3636 3612 3666 3595 3515 3206 2834 2491 2238 2141 2146 2340 2522 2662 2921 3096 3115 3044 3056 3051 2925 2921 2817 2723 2646 2532 2400 2340 2353 2458 2491 2582 2683 2925 3081 3130 3240 3314 3300 3301 3397 3412 3318 3200 3155 3101 3027 3007 3216 3390
0 0 0 115 237 374 509 685 801 728 975 1571 1964 2488 3026 3767 4142 4404 4612 4484 3407 2131 1864 2379 2199 2245 2888 3583 3932 3957 3947 3845 3850 4021 4014 3882 3780 3805 3714 3637 3545 3258 2874 2584 2388 2319 2288 2335 2470 2648 2969 3140 3161 3122 3314 3081 3011 3042 3024 2975 2918 2828 2692 2600 2495 2553 2606 2721 2874 3052 3257 3398 3501 3621 3715 3633 3513 3528 3608 3611 3583 3514 3413 3289 3177
0 0 0 250 357 438 505 562 559 575 720 1232 1816 2505 3274 3706 4006 4046 4387 4655 3605 2115 2066 2514 3068 3045 3120 3622 3894 3930 3974 3932 3880 3975 4151 4162 3977 3911 3827 3727 3731 3600 3296 2973 2710 2541 2430 2364 2343 2429 2653 2986 3122 3173 3428 3283 3157 3128 3170 3206 3190 3105 2984 2872 2789 2679 2620 2686 2793 2908 2976 3043 3146 3293 3436 3525 3575 3552 3597 3679 3744 3679 3612 3505 3404
0 84 267 412 467 515 547 613 669 638 980 1397 1831 2538 3068 3311 3433 3976 4258 4469 3638 2725 2384 2629 2940 3229 3377 3634 3860 3858 3921 3936 3882 3852 4059 4284 4307 4223 3928 3882 3834 3825 3613 3357 3088 2822 2656 2543 2423 2368 2435 2621 2862 3004 3272 3429 3270 3195 3172 3182 3244 3230 3135 3085 3019 2941 2822 2712 2688 2786 2866 2892 2917 2960 2998 3121 3228 3250 3394 3540 3642 3715 3679 3576 3400
44 209 260 373 472 558 622 682 736 779 1058 1389 1646 1977 2327 2830 3371 3952 4189 4544 3787 3330 2950 3010 3194 3302 3443 3622 3836 3828 3851 3884 3861 3868 3946 4221 4302 4285 4211 4049 3927 3959 3955 3664 3344 3098 2872 2692 2563 2458 2383 2412 2581 2762 2938 3407 3473 3333 3229 3174 3147 3140 3147 3156 3147 3102 2980 2866 2800 2764 2763 2710 2783 2776 2814 2822 2856 2872 3060 3263 3454 3506 3489 3349 3091
200 242 310 402 462 511 535 602 776 883 1003 1178 1356 1676 2131 2581 3243 3724 3856 4619 4390 3490 3276 3369 3455 3422 3435 3610 3840 3848 3812 3808 3846 3922 4004 4133 4208 4284 4331 4201 4051 3993 4067 3966 3704 3355 3051 2850 2754 2690 2535 2420 2435 2530 2756 3166 3463 3507 3430 3334 3224 3159 3163 3225 3229 3196 3117 3019 2949 2959 3169 3156 3090 2897 2808 2765 2666 2786 2858 3015 3121 3124 3090 3008 2930
Wind_Speed
9 9 9 8 10 6 7 8 7 5 nan nan nan 3 5 4 6 6 10 10 10 9 9 7 5 6 6 nan nan nan 5 4 0 2 3 3 3 2 3 4 5 5 5 6 6 6 7 8 8 9 10 10 9 8 9 11 9 8 8 9 9 9 9 8 10 9 8 9 9 9 11 12 14 14 15 15 13 15 13 12 14 16 14 13 14
10 7 7 11 10 8 8 7 8 6 nan nan 2 2 3 5 6 6 12 11 10 9 9 9 8 7 5 3 nan 4 4 2 1 1 2 3 3 2 3 4 5 5 6 7 7 7 7 8 9 8 8 10 10 9 9 10 9 9 8 9 10 8 8 7 9 7 8 8 8 9 10 10 13 13 13 14 14 nan nan 10 nan 12 12 14 14
10 8 7 8 11 9 10 8 7 6 6 nan 3 3 2 4 6 8 12 11 11 10 10 9 8 7 5 3 nan 3 4 2 1 2 3 4 2 2 2 3 4 5 5 7 7 7 8 8 9 8 8 9 8 8 7 8 10 11 10 9 9 9 8 8 5 5 8 8 8 6 10 8 10 9 11 14 14 nan nan 13 12 11 12 13 14
9 9 8 7 10 11 11 9 8 6 5 4 3 3 nan 5 6 9 11 11 11 9 10 8 6 6 4 1 2 1 2 2 3 4 3 3 2 1 2 3 4 5 5 7 8 8 7 8 8 8 8 8 7 7 8 10 11 10 11 11 8 8 8 8 6 6 6 5 7 8 10 8 9 10 12 12 13 nan nan nan 12 13 14 14 12
9 7 7 7 11 12 14 12 10 7 4 3 4 4 nan 5 6 9 11 11 11 9 8 8 5 5 4 2 2 3 4 4 4 4 1 2 1 1 3 4 4 5 6 7 7 7 7 7 8 8 7 7 6 7 8 10 10 10 10 10 9 7 6 6 7 6 7 6 6 6 6 7 10 11 8 11 7 10 14 nan 13 13 15 17 15
8 7 6 7 8 13 15 15 13 8 5 3 5 nan nan 7 8 10 13 13 11 7 8 6 5 3 5 3 2 2 2 2 1 1 1 1 2 1 1 3 4 5 5 7 7 7 6 6 6 6 5 6 6 6 7 7 8 8 10 9 9 8 6 4 6 7 5 6 6 7 6 7 8 8 6 9 9 10 nan nan 13 14 15 17 15
6 7 7 5 9 12 15 16 15 12 9 6 7 nan nan 8 7 10 13 14 11 9 8 6 6 5 4 3 3 2 2 3 3 2 1 1 1 1 1 2 4 4 4 6 6 5 4 5 5 5 4 5 4 4 5 7 7 8 8 7 9 6 5 5 5 5 5 5 7 7 7 9 8 6 8 7 7 9 10 11 nan 15 16 15 14
8 8 7 5 10 12 15 17 17 15 12 8 8 7 nan 9 8 11 13 14 13 8 9 6 6 5 5 5 4 1 1 nan 2 nan 1 1 2 0 2 3 3 5 3 5 5 4 3 2 4 4 3 3 4 5 6 6 6 7 6 8 7 6 6 5 5 5 4 6 6 6 5 8 nan 6 7 8 8 8 11 14 13 15 14 14 14
11 9 7 6 7 10 13 16 17 18 15 10 8 8 11 10 10 12 12 13 13 8 9 7 7 5 5 6 5 1 nan nan 2 3 3 2 3 2 1 3 2 4 4 3 5 3 3 2 2 4 4 3 4 5 6 5 6 5 4 5 7 7 5 4 4 7 5 6 6 5 4 4 6 7 8 6 7 8 12 13 15 11 12 16 15
12 9 7 7 6 8 12 16 16 16 16 13 10 10 12 11 10 11 12 12 13 9 9 8 6 6 6 nan 4 2 2 2 3 3 2 3 3 2 2 3 3 4 5 2 4 3 3 3 3 3 4 3 5 6 5 4 5 5 7 8 8 6 6 6 8 9 8 9 7 6 5 7 6 8 8 nan 9 9 11 14 16 15 nan 13 13
11 10 8 6 8 10 10 15 15 14 15 15 12 10 12 10 10 10 11 13 13 10 9 9 8 6 7 nan nan 3 2 1 nan 5 3 3 nan 2 3 3 4 3 6 4 3 3 2 2 2 3 5 4 5 5 3 7 8 9 10 8 8 8 7 9 9 9 9 9 8 7 9 9 11 9 10 9 10 11 nan 14 16 13 11 nan 14
11 11 10 8 10 11 9 12 15 14 15 16 12 11 11 10 11 10 12 12 13 12 10 10 8 7 8 7 4 3 3 2 nan 3 4 2 2 3 3 4 4 4 4 5 3 2 2 2 2 3 5 5 5 5 4 9 10 10 9 9 9 10 10 10 10 11 11 11 10 10 11 11 11 11 12 10 9 11 10 14 15 14 12 12 14
11 11 11 10 10 11 11 11 12 13 13 16 14 11 10 10 10 11 9 12 12 12 10 9 9 8 7 6 4 4 3 3 nan 3 4 nan 3 4 4 3 4 4 3 3 3 2 2 1 2 3 5 5 5 5 7 5 8 9 9 9 10 11 11 11 11 13 11 12 14 12 12 11 11 12 9 9 10 9 10 11 14 12 13 13 13
13 12 12 12 11 11 11 11 10 9 11 13 12 10 9 9 9 9 9 11 13 12 11 10 9 9 8 7 5 4 5 3 3 3 nan 4 4 3 4 3 2 2 2 1 2 2 2 1 2 4 4 5 5 6 7 7 6 6 10 10 11 12 11 11 14 14 14 14 14 13 12 11 11 10 9 8 9 8 10 12 14 13 11 12 14
16 16 13 12 11 11 11 12 10 8 9 12 10 8 9 9 8 9 10 10 11 11 12 10 11 10 9 8 6 5 5 5 4 4 nan 4 nan 5 4 4 4 3 2 2 1 2 1 1 2 4 3 5 5 6 7 7 5 5 6 10 11 11 12 13 13 15 15 15 15 13 13 13 12 10 11 11 9 10 10 10 10 12 12 11 12
16 16 15 14 12 11 11 11 10 8 10 11 12 9 8 8 8 8 9 9 10 11 11 11 12 12 10 8 6 5 5 6 7 6 nan 4 4 5 5 5 4 4 4 4 2 1 1 1 2 3 3 3 5 5 5 5 5 6 7 8 8 10 12 13 15 15 16 15 15 13 12 12 11 9 8 7 6 7 7 9 6 7 8 11 12
13 14 16 16 14 12 12 12 11 10 10 11 11 10 9 10 10 9 9 10 9 10 11 12 13 13 10 8 7 6 4 nan 5 5 4 5 5 5 6 5 5 5 5 6 5 4 2 1 2 3 4 3 4 5 4 5 5 6 7 8 10 11 11 14 14 15 15 14 13 13 13 13 13 10 9 6 5 3 5 6 6 7 7 7 9
18 16 15 17 15 14 13 13 12 10 10 10 11 10 9 11 12 11 11 9 9 11 12 14 14 13 12 9 7 5 4 nan nan nan 6 6 6 6 7 7 7 6 5 6 6 5 5 2 2 3 4 3 4 4 4 4 4 6 6 8 9 10 11 12 13 13 15 13 14 14 13 14 13 12 11 9 4 4 2 4 5 6 5 6 7
21 16 14 14 13 13 13 12 12 12 10 9 8 10 9 11 13 13 11 10 11 14 16 16 14 15 13 10 8 7 6 nan nan nan nan 6 5 5 5 6 8 8 6 6 6 5 6 4 3 3 3 4 2 3 3 3 3 4 6 8 9 10 11 11 12 12 13 12 12 13 13 13 13 13 12 8 6 3 3 3 6 6 6 5 5
17 13 12 11 12 13 14 13 13 13 11 9 9 9 12 12 14 14 13 15 16 14 15 13 13 14 13 12 10 9 7 nan nan nan nan 5 5 6 5 6 6 9 9 7 7 6 5 6 3 3 3 3 3 2 2 3 2 3 5 7 9 9 11 12 12 12 12 13 13 13 12 12 12 11 11 9 6 6 3 2 3 4 5 5 4
13 13 15 13 11 13 14 14 12 12 12 10 9 10 11 11 13 14 16 17 16 14 13 12 14 13 13 11 10 10 8 nan nan nan nan nan nan 5 6 6 8 7 8 10 9 7 5 5 5 4 3 3 3 2 2 2 2 3 5 6 7 9 11 12 11 12 12 13 13 13 13 11 9 8 10 10 7 6 5 3 3 3 4 5 3
18 18 18 14 11 11 14 13 13 13 13 11 9 9 9 9 10 11 12 13 16 16 14 12 13 13 11 11 10 11 10 9 nan nan nan nan nan nan 6 7 7 7 7 7 10 9 8 6 5 5 5 4 3 3 3 2 3 3 4 5 6 8 10 12 11 12 13 12 11 12 12 12 10 9 8 8 9 7 4 3 3 3 4 5 5
22 22 20 17 13 12 14 14 12 12 12 11 10 10 10 10 11 10 9 9 12 14 15 15 13 13 11 12 12 12 11 9 nan nan nan nan nan nan 5 6 6 9 9 8 nan 10 9 7 6 5 5 6 4 4 4 4 3 4 5 5 6 6 9 11 12 13 13 12 11 11 11 10 8 7 7 7 6 7 5 4 5 3 3 4 4
21 19 20 19 18 17 16 14 13 13 13 11 11 11 10 9 10 10 11 10 9 11 15 16 13 11 12 14 13 12 10 9 7 6 5 6 nan nan 6 5 6 8 9 10 10 10 12 10 8 7 6 6 6 6 6 5 5 6 6 6 6 5 7 10 12 12 12 12 12 11 10 9 8 7 6 5 5 4 5 3 2 3 3 4 3
15 17 18 20 20 19 17 15 14 15 14 12 13 12 10 7 7 9 10 11 10 10 12 15 15 13 13 13 11 11 9 8 7 7 6 7 8 8 7 6 7 7 9 10 11 11 12 12 10 10 9 7 7 7 8 7 5 6 7 8 7 6 6 8 11 11 12 12 12 12 11 9 8 7 5 5 4 3 3 4 5 3 1 2 2
14 12 14 16 18 18 17 16 15 16 16 15 14 13 11 8 8 9 10 9 10 11 12 14 17 16 13 11 11 10 7 6 7 8 7 9 10 9 9 7 7 8 9 10 11 12 12 12 12 11 10 9 8 8 9 9 8 7 7 8 9 7 7 7 8 10 11 11 11 11 11 11 9 8 6 4 3 4 2 1 2 5 4 3 2
14 13 9 12 17 17 17 17 15 14 16 16 15 14 13 10 9 9 8 7 7 9 12 12 15 16 14 11 10 8 7 7 7 8 10 10 10 11 10 9 8 8 9 11 12 13 13 14 13 13 12 11 10 9 10 10 10 9 9 9 9 9 8 6 7 9 10 11 11 11 11 11 12 11 8 5 4 4 4 3 3 2 3 4 3
16 13 13 12 14 15 17 18 16 16 17 16 16 16 15 13 10 10 9 7 5 6 10 11 12 13 13 11 9 8 8 7 8 9 10 10 11 11 12 12 11 9 9 10 12 14 15 15 14 13 13 13 11 10 11 11 11 11 12 10 10 10 9 8 7 8 9 10 10 10 11 11 12 12 10 8 6 5 6 6 5 6 5 4 3
38 33 28 26 20 17 16 17 18 18 19 18 17 17 18 16 14 12 9 6 5 5 7 9 10 10 11 12 12 10 9 8 7 8 9 10 10 11 13 14 13 11 10 10 12 15 16 16 15 15 14 13 12 11 11 11 11 11 13 13 12 11 11 9 8 8 9 10 9 10 10 10 11 13 15 12 9 8 8 8 7 7 6 6 5
51 48 45 44 44 41 33 22 20 20 20 21 21 20 19 17 15 14 11 9 8 5 6 7 9 9 10 13 13 11 9 7 5 5 6 8 10 11 12 14 14 13 12 12 13 15 16 17 17 16 15 13 12 11 11 14 13 12 12 12 12 11 11 11 10 9 9 9 10 9 10 14 15 15 15 16 14 12 10 10 11 10 8 7 6
56 53 51 46 42 40 41 43 39 29 23 23 23 22 22 21 19 18 15 13 11 7 6 5 6 8 9 11 13 11 9 6 3 3 4 5 8 10 11 13 14 14 14 14 14 15 16 17 18 17 16 14 13 12 14 14 14 13 12 12 13 12 11 11 11 11 10 9 8 9 8 10 13 15 15 17 16 15 12 10 11 13 13 11 8
48 54 54 50 47 47 46 39 37 45 47 42 38 30 29 24 23 21 19 17 15 11 8 6 8 11 9 8 10 10 8 6 4 2 2 3 6 8 9 11 13 14 16 17 15 14 17 18 18 18 17 15 14 14 17 17 15 14 13 12 13 13 12 11 11 12 11 10 9 9 8 8 9 11 13 13 14 16 15 12 10 10 12 13 13
52 54 52 48 43 43 48 48 45 44 43 41 44 42 29 26 26 27 26 22 18 16 15 13 12 13 10 7 8 8 7 6 4 2 2 2 3 6 8 9 11 14 16 16 15 15 17 18 19 18 17 16 15 16 19 19 17 16 15 13 12 14 14 12 11 11 12 12 11 10 9 9 8 10 13 15 14 12 11 12 11 10 8 10 10
54 53 51 50 48 44 44 49 48 44 45 44 38 35 43 49 45 44 40 37 36 36 36 35 35 30 17 8 6 5 5 5 6 5 4 2 1 3 6 7 9 12 14 14 15 15 16 19 19 20 19 18 16 18 20 20 19 18 16 14 12 13 14 14 13 12 12 13 13 12 11 10 10 9 11 14 15 14 11 10 9 9 9 7 7
58 54 nan nan nan 43 41 37 32 34 34 35 34 37 47 44 37 33 30 28 26 24 22 21 23 21 23 15 4 3 3 5 6 6 5 3 1 1 3 6 8 9 11 12 13 14 15 17 20 20 21 19 18 21 22 21 21 20 19 16 13 14 14 15 14 14 13 13 14 13 12 10 10 11 12 13 14 14 13 11 11 10 9 9 9
nan 54 55 52 nan nan 45 45 40 30 25 25 25 29 40 33 23 24 24 24 21 18 16 17 13 8 6 3 2 2 2 3 4 4 4 2 2 2 4 7 8 8 9 11 12 13 14 15 18 20 20 20 20 24 23 23 22 21 22 17 15 14 15 15 15 16 15 14 14 14 14 12 11 11 10 13 14 14 13 12 12 10 10 10 9
58 nan nan 55 53 nan 48 nan 38 34 30 21 21 23 26 27 19 16 17 17 16 13 14 15 11 8 10 9 6 4 3 3 2 1 0 1 2 4 6 9 9 9 11 11 12 13 14 14 15 18 18 18 20 23 24 23 23 23 23 19 16 15 14 14 15 17 16 16 15 15 15 14 13 12 12 13 13 16 14 13 12 11 10 10 9
60 59 59 nan nan nan nan nan 38 34 31 29 30 32 32 30 23 18 16 13 9 9 15 17 14 14 7 10 10 8 6 5 3 1 2 1 2 5 6 9 9 10 11 12 14 14 14 14 14 14 16 19 18 21 23 24 24 25 26 21 19 17 14 13 13 17 19 19 18 14 15 15 15 13 15 16 15 15 14 15 14 12 11 10 9
nan nan 59 59 56 52 47 44 41 39 38 36 33 32 33 31 28 22 18 12 6 7 13 12 8 7 7 9 12 10 8 7 4 1 1 1 3 4 7 9 9 11 13 15 16 16 15 15 14 13 13 15 17 20 21 23 25 26 24 21 21 18 16 13 13 14 17 17 17 17 15 15 15 14 16 17 17 16 13 14 14 14 11 10 10
nan nan nan nan nan 54 53 50 44 40 39 36 34 30 28 25 24 22 16 9 4 3 6 7 9 12 12 11 13 12 10 8 5 5 5 4 6 8 8 8 9 11 14 16 17 16 16 15 15 14 14 14 13 18 19 20 22 24 25 22 21 20 16 14 13 16 17 16 15 16 15 12 13 14 17 18 18 18 14 13 14 13 11 8 11
nan nan nan nan nan 52 52 49 44 40 37 36 33 28 25 24 21 19 15 11 7 7 8 10 11 10 9 11 13 13 11 9 9 10 10 10 10 9 10 10 10 11 13 15 16 17 16 16 16 15 15 15 14 15 18 20 22 23 22 22 21 18 16 15 14 15 16 16 16 15 16 13 12 13 14 16 18 17 15 13 14 12 12 10 15
nan nan nan nan nan nan 53 51 49 45 41 39 38 35 31 29 25 20 17 16 17 13 10 11 12 11 10 11 13 13 12 13 14 15 14 11 11 11 11 11 12 13 12 13 15 17 17 18 17 17 16 16 16 15 20 18 22 22 23 21 19 16 17 17 15 14 15 16 16 17 17 14 13 13 13 13 14 15 14 12 11 12 10 13 15
nan nan nan nan nan 54 51 50 48 46 45 43 42 40 37 33 29 24 20 19 18 20 17 14 13 12 11 11 13 13 14 16 17 16 15 14 15 13 12 13 14 14 13 13 14 16 17 18 19 18 17 17 18 16 22 20 19 21 21 19 17 16 16 17 14 13 14 15 17 18 17 14 14 13 12 12 13 13 13 11 10 11 13 16 17
nan nan nan nan nan 51 50 47 45 43 41 40 39 37 35 33 28 26 24 21 19 19 20 18 15 12 12 14 14 13 14 16 17 19 18 18 18 16 15 15 15 16 15 14 14 15 16 18 18 19 18 17 17 17 19 22 21 20 20 19 15 13 18 15 14 13 15 17 19 19 16 14 16 16 15 15 14 15 15 12 12 13 18 20 21
nan nan nan nan nan 53 48 44 43 42 42 41 40 38 36 33 31 28 25 24 21 20 19 18 16 14 11 12 15 16 15 16 18 20 20 20 19 20 17 16 17 17 16 14 14 15 16 17 18 18 18 18 18 17 18 20 24 21 19 17 15 12 12 15 14 14 17 19 18 16 14 14 16 17 18 17 16 16 16 14 15 17 21 23 24
nan nan nan nan 56 51 47 43 41 41 40 39 39 38 36 34 34 33 30 26 23 21 19 16 14 15 15 15 16 17 17 17 18 20 19 20 21 21 19 19 18 18 16 15 14 15 15 16 17 18 19 19 19 19 19 21 21 22 18 15 14 12 11 12 12 14 15 19 18 15 16 17 16 16 19 19 18 16 15 15 15 19 21 24 26
nan nan nan 58 55 50 47 44 41 40 40 39 39 39 37 35 34 36 35 28 25 24 22 21 18 17 18 17 18 19 19 19 19 20 21 22 23 24 22 21 19 17 16 15 15 15 15 16 16 18 20 21 21 19 20 22 24 23 20 17 14 13 11 14 18 22 26 26 27 26 25 25 25 22 21 20 19 19 21 21 21 21 22 24 26
nan nan nan 56 54 49 46 45 44 43 40 38 38 38 38 37 37 39 38 29 27 26 24 23 21 22 22 20 19 19 21 22 22 22 23 24 24 24 22 19 17 17 16 15 15 15 15 16 17 20 22 22 21 19 20 22 22 23 21 22 20 19 20 19 18 20 24 26 27 28 28 27 28 28 25 27 26 26 25 26 25 26 26 27 28
nan nan 62 56 52 49 48 49 48 47 44 39 37 37 38 38 40 41 42 31 28 26 24 23 23 25 25 24 23 24 23 25 25 26 25 26 24 23 23 20 18 18 17 16 16 16 16 18 20 21 21 20 19 18 17 21 22 23 24 23 23 21 20 20 16 18 25 26 26 24 24 24 25 27 27 26 26 27 27 27 27 28 29 30 32
nan 63 62 58 53 50 51 51 50 50 49 45 41 39 38 38 41 41 42 36 28 28 26 25 26 27 28 29 28 28 27 29 29 29 33 37 43 43 34 23 18 16 14 14 18 17 18 21 21 20 20 19 18 16 21 25 23 24 23 23 21 21 20 19 18 20 20 20 21 21 20 22 23 23 23 22 23 24 25 25 24 26 29 30 30
69 67 70 66 59 54 53 53 53 52 51 48 45 40 38 39 41 41 41 40 33 29 28 28 28 29 30 32 32 32 32 33 33 34 37 37 37 37 41 39 35 25 18 18 17 16 17 18 20 21 18 13 14 23 28 25 25 25 23 21 21 21 20 18 22 26 19 17 17 18 18 18 20 20 19 18 20 21 22 24 24 26 28 30 30
Wind_Direction
294 306 313 292 302 289 294 289 297 270 nan nan nan 321 345 249 252 228 186 188 188 184 178 182 181 170 174 nan nan nan 137 118 347 5 335 9 27 31 46 73 81 93 95 101 102 108 110 108 102 95 89 87 83 76 76 81 88 91 99 110 113 115 118 117 113 96 86 86 85 58 46 47 56 65 67 71 70 74 64 39 49 52 55 50 56
296 285 300 315 304 313 301 287 298 287 nan nan 235 283 326 259 255 223 193 188 191 189 184 187 183 174 177 134 nan 125 149 129 178 317 316 339 15 40 60 71 81 86 93 106 112 106 102 100 91 86 80 81 80 78 72 81 91 90 92 109 109 111 112 111 111 101 96 65 54 62 59 62 60 65 71 72 60 nan nan 48 nan 49 45 47 51
291 305 312 301 311 312 298 291 292 289 269 nan 225 234 271 250 230 217 200 195 195 193 195 194 187 181 178 149 nan 148 153 154 167 291 309 326 10 65 78 85 98 105 100 105 108 108 99 91 88 88 79 78 76 74 74 80 82 84 83 89 105 106 109 103 101 90 79 72 55 50 60 51 65 76 73 63 47 nan nan 55 53 48 53 46 45
261 308 326 316 315 324 299 295 281 280 263 270 232 255 nan 221 226 216 209 206 204 197 198 196 197 178 170 157 121 137 149 180 204 283 297 311 349 75 108 113 109 113 108 111 115 110 98 92 97 93 84 77 67 61 60 66 77 83 90 90 91 102 103 105 92 73 72 63 51 60 57 42 61 65 59 68 56 nan nan nan 44 44 50 58 56
271 274 313 320 329 324 308 296 284 277 273 273 241 231 nan 225 230 222 214 212 212 208 205 208 197 177 136 150 179 200 197 206 201 252 299 335 338 88 84 111 113 118 112 109 108 101 97 96 95 88 82 72 64 56 52 55 67 70 75 83 84 82 83 88 94 88 74 63 51 69 82 74 60 56 47 71 58 64 55 nan 40 40 47 51 52
286 281 286 312 314 305 309 308 302 277 265 244 231 nan nan 222 220 216 211 211 218 218 209 218 200 164 138 184 215 205 224 186 143 30 318 38 24 104 78 97 107 118 112 104 103 102 97 92 94 92 81 72 48 45 48 53 56 62 69 67 78 83 48 70 87 89 80 60 48 48 55 58 56 59 37 53 72 62 nan nan 39 45 49 53 54
275 267 262 288 315 314 317 317 307 291 262 238 217 nan nan 233 230 218 213 210 218 220 210 218 202 166 145 186 210 243 297 126 143 127 265 78 185 150 137 110 120 127 109 114 116 107 107 103 100 96 83 65 56 45 52 46 41 52 58 60 69 66 50 60 61 76 100 81 73 68 60 60 38 38 40 41 52 67 75 78 nan 59 51 53 57
303 292 296 267 312 319 324 324 309 298 277 259 217 219 nan 237 243 222 212 213 212 224 211 214 209 183 165 201 221 223 353 nan 131 nan 128 184 286 311 168 158 126 146 130 134 136 122 130 103 102 111 87 54 35 46 47 43 40 53 39 46 58 47 37 25 53 64 53 68 74 65 60 65 nan 42 37 37 44 64 85 92 78 56 62 63 56
304 302 308 293 308 317 310 314 307 299 296 279 232 223 226 235 238 222 222 216 212 229 219 214 213 198 178 221 223 174 nan nan 164 161 122 206 284 211 220 187 165 146 171 137 157 143 142 136 116 110 94 82 45 45 51 32 36 35 38 39 52 53 39 43 48 68 59 62 74 68 66 73 67 69 62 53 65 78 89 91 93 94 65 68 67
301 303 306 306 293 298 284 299 307 304 307 283 256 236 228 233 239 233 225 218 217 225 218 219 225 217 197 nan 249 207 201 172 182 187 150 181 239 221 220 209 204 168 181 171 179 157 152 140 138 107 96 79 53 53 50 40 49 36 32 40 52 53 49 33 48 58 58 65 47 51 60 71 80 76 84 nan 85 79 85 99 99 92 nan 84 71
294 298 294 300 294 289 276 302 311 308 303 301 280 261 242 241 245 243 227 221 222 228 223 220 228 233 211 nan nan 223 248 258 nan 189 184 183 nan 220 219 213 216 187 190 186 178 159 158 143 140 109 109 109 64 69 41 29 37 32 31 37 42 45 48 54 57 54 56 58 63 55 55 58 57 65 70 74 74 87 nan 103 103 94 80 nan 91
294 292 286 289 291 297 300 302 314 318 311 315 297 275 257 248 249 252 232 227 225 229 232 221 227 236 221 227 229 227 248 252 nan 194 200 216 214 238 234 225 213 213 188 201 161 163 165 147 126 104 97 101 83 76 64 23 36 36 29 27 36 44 51 53 58 62 56 64 72 63 64 67 70 55 56 53 65 75 84 90 98 107 104 84 89
283 285 285 289 298 308 314 313 310 320 319 319 310 291 269 258 262 261 251 237 232 233 237 233 226 235 238 234 223 213 225 248 nan 206 190 nan 224 240 254 241 225 215 200 191 172 146 170 144 85 81 72 76 74 60 75 51 36 42 37 36 40 46 51 54 62 67 61 56 63 61 56 63 64 60 46 62 73 61 78 95 99 97 92 95 90
278 279 284 289 294 303 310 312 310 322 319 317 312 292 271 263 264 269 259 246 235 235 240 238 233 233 237 236 225 217 217 229 216 201 nan 190 199 222 248 258 243 238 224 209 157 165 168 126 87 80 64 55 46 39 51 63 43 35 46 44 54 57 55 56 60 68 67 63 56 61 65 64 69 74 67 61 66 75 85 81 91 104 99 101 98
274 277 280 285 293 289 301 309 305 315 315 319 313 291 274 266 266 266 260 248 241 244 237 243 236 234 234 235 225 210 221 223 219 198 nan 192 nan 190 197 217 221 205 227 203 178 183 176 117 71 70 72 40 27 23 32 49 61 66 64 65 62 60 57 58 63 68 68 66 64 55 55 60 66 71 84 71 62 64 74 82 88 99 108 113 106
279 282 283 288 290 286 285 297 303 308 324 322 329 302 282 274 272 268 261 255 244 242 239 244 241 235 239 242 234 219 213 219 220 209 nan 197 193 185 179 189 190 196 194 209 196 188 197 23 49 46 49 28 21 15 31 47 71 79 86 93 78 68 63 59 65 67 68 65 64 64 61 68 70 79 92 108 78 75 82 86 83 94 98 106 112
287 281 282 288 287 290 288 298 297 310 329 338 338 323 302 280 274 268 253 240 237 236 238 239 240 239 242 248 242 223 220 nan 235 231 236 209 205 181 177 171 185 194 190 188 189 204 212 278 354 9 17 14 11 19 31 59 80 86 77 85 84 82 65 61 65 64 72 70 69 64 60 64 77 82 101 97 95 71 69 90 89 89 82 94 100
300 287 282 281 287 298 288 288 306 312 332 340 338 327 304 292 288 281 262 257 240 229 227 228 234 237 238 244 250 248 230 nan nan nan 236 231 213 195 176 177 179 190 197 186 186 197 214 273 299 340 2 358 4 15 35 64 75 75 75 71 77 76 74 70 62 59 68 71 68 69 62 64 70 78 82 95 85 89 96 105 101 88 84 91 87
296 292 286 275 277 293 298 294 289 297 313 330 323 329 313 301 301 298 288 266 250 228 221 218 223 224 228 238 250 249 237 nan nan nan nan 245 249 224 194 175 182 193 200 199 201 196 217 233 276 321 335 350 345 357 26 66 73 62 66 67 68 66 68 66 63 57 66 67 70 68 66 64 64 69 79 94 93 106 100 96 107 114 101 92 92
306 310 313 299 285 298 303 293 291 290 302 317 327 331 339 325 317 314 296 269 254 242 230 224 223 221 223 226 230 239 244 nan nan nan nan 252 254 255 231 205 185 196 204 212 213 211 222 237 255 298 323 326 327 338 0 39 65 55 59 60 57 51 56 56 57 51 55 57 65 67 64 63 65 63 72 81 75 90 77 72 98 101 92 88 81
299 319 329 314 289 288 291 286 278 278 285 303 319 332 340 336 334 327 316 305 294 279 259 237 228 224 225 228 230 235 246 nan nan nan nan nan nan 252 252 234 220 206 210 218 219 221 236 248 256 265 293 304 314 308 333 352 28 48 58 55 52 40 41 48 47 52 50 46 48 54 63 64 60 63 71 83 82 70 83 61 65 66 78 86 79
282 297 307 304 291 292 292 283 265 270 282 299 309 310 324 336 329 328 328 320 310 295 281 262 242 235 234 231 230 229 235 236 nan nan nan nan nan nan 248 245 246 240 239 232 234 231 237 260 262 261 261 286 297 297 295 315 355 14 41 53 50 37 33 35 38 40 45 45 38 42 50 53 53 52 64 76 88 91 83 85 70 34 41 58 69
276 282 287 284 276 282 293 292 273 271 280 293 301 315 321 324 318 322 336 337 320 306 289 269 251 240 237 232 231 230 235 242 nan nan nan nan nan nan 248 253 255 252 251 258 nan 254 256 268 277 277 269 267 287 302 294 310 346 355 10 31 40 28 24 25 27 31 33 36 38 34 40 42 41 42 51 66 83 95 99 82 79 66 43 47 48
269 271 269 272 267 270 274 282 281 264 261 287 299 307 315 321 323 329 347 342 326 307 291 279 265 249 242 237 235 231 242 247 252 246 267 274 nan nan 265 258 259 255 257 258 270 273 268 281 290 295 297 282 282 296 307 317 338 345 350 3 19 23 16 19 19 21 22 24 29 31 35 31 31 27 38 44 63 87 108 126 113 97 54 48 34
262 255 263 265 269 272 267 273 282 273 261 265 277 287 294 300 301 315 332 335 327 315 301 286 272 258 240 237 239 239 242 253 259 248 265 269 270 273 270 277 268 263 263 261 263 274 276 281 291 295 298 300 295 299 307 318 321 331 337 339 349 6 15 11 13 12 13 13 18 21 24 20 17 22 32 26 23 36 82 119 136 160 103 61 45
269 268 260 274 275 271 263 266 271 272 268 260 263 273 280 275 279 289 304 318 329 319 312 292 278 267 250 241 237 238 244 256 259 254 260 261 261 265 269 272 277 280 275 275 273 271 278 281 283 288 292 299 294 290 299 311 319 320 324 328 331 340 358 5 3 5 6 5 10 15 12 8 6 7 20 15 349 345 312 279 163 156 165 190 193
264 259 251 247 253 269 270 269 267 265 264 259 256 265 265 262 272 278 284 304 319 323 317 303 286 278 263 253 242 238 239 242 245 245 244 248 255 261 269 272 273 279 284 283 283 281 276 283 285 283 287 290 294 291 292 301 310 310 315 320 321 330 336 342 1 5 3 357 360 5 6 359 359 2 4 357 339 316 301 285 277 238 204 202 193
265 259 251 245 248 261 265 266 263 255 256 254 250 254 256 253 259 259 264 275 281 320 315 311 298 282 269 263 247 239 235 239 240 240 241 248 252 257 263 264 267 278 284 288 287 288 281 282 288 289 289 287 292 295 294 299 305 305 304 312 315 320 329 329 334 355 1 360 355 353 357 357 356 352 351 352 334 320 291 286 283 268 246 234 210
225 219 214 209 215 231 248 256 261 257 251 249 243 243 241 240 242 243 244 251 264 291 305 315 313 295 275 260 244 233 227 231 244 247 246 248 254 255 257 259 263 269 266 280 280 287 287 287 287 289 291 290 292 296 291 294 299 302 298 303 311 315 321 324 326 332 342 352 352 350 350 351 348 354 356 349 341 326 297 293 284 281 269 260 240
218 221 220 218 211 207 202 210 237 247 244 243 239 239 242 242 241 245 240 237 247 270 285 305 321 311 278 260 248 235 229 231 242 259 262 259 255 256 258 261 265 267 264 264 268 277 289 291 290 290 289 288 288 283 294 315 307 294 293 292 293 302 307 310 318 323 327 338 345 341 343 360 4 3 358 358 358 353 337 307 295 291 291 282 265
211 213 216 216 212 209 213 210 204 212 228 231 230 232 234 231 233 235 235 231 235 239 251 267 291 289 279 262 247 238 230 226 236 260 273 276 268 259 259 262 264 265 264 259 260 266 280 286 290 289 292 289 287 285 310 308 312 314 293 284 288 294 296 299 302 310 321 332 339 339 328 343 353 360 359 2 360 3 2 347 328 316 310 305 290
224 216 212 210 204 203 201 207 215 217 214 211 211 219 220 221 225 230 232 228 224 225 229 232 242 249 261 262 246 237 226 215 215 239 287 293 279 276 274 269 268 271 263 259 261 259 263 277 283 289 292 291 287 298 309 311 312 314 305 287 279 284 291 292 291 301 307 312 322 326 325 318 316 325 336 341 353 3 5 0 347 333 325 322 315
217 217 215 208 201 205 201 198 205 214 221 221 215 211 219 220 218 223 230 229 220 216 213 210 218 229 235 240 237 229 216 206 200 207 229 259 293 297 296 286 285 277 270 271 268 265 257 266 279 286 289 291 287 301 306 311 312 313 315 304 278 277 285 291 291 291 293 298 299 305 308 308 316 350 325 322 327 340 359 5 356 348 332 323 325
215 214 215 207 202 207 211 203 203 206 206 206 214 225 222 218 219 225 229 230 228 220 212 207 203 196 192 208 215 221 203 196 201 206 213 224 300 323 311 299 287 282 285 281 276 273 264 259 270 278 280 281 286 295 306 309 311 314 314 302 279 282 278 282 288 286 281 285 291 296 300 298 296 302 305 310 314 324 327 326 316 296 287 302 326
214 213 nan nan nan 199 204 220 220 208 207 203 192 211 229 227 219 222 231 240 249 255 250 245 236 213 178 164 192 198 199 201 208 212 212 212 275 273 294 288 285 291 292 288 282 276 269 261 260 270 272 275 277 296 303 308 311 314 315 303 283 274 272 271 275 278 279 281 282 289 294 303 300 294 291 299 308 315 314 311 307 304 299 296 297
nan 213 215 211 nan nan 207 204 213 216 220 202 202 214 241 239 222 228 235 246 253 255 251 249 256 274 287 202 177 229 229 220 218 223 222 230 251 265 272 264 264 267 271 276 276 276 274 270 260 263 270 272 273 293 301 304 309 311 312 292 285 279 273 270 270 271 275 276 279 285 288 297 301 301 315 323 313 307 306 304 302 296 289 286 291
206 nan nan 209 208 nan 207 nan 209 208 209 217 198 215 230 241 230 233 247 254 261 261 259 255 236 240 275 291 303 302 289 272 249 243 290 294 269 258 249 246 254 261 263 272 279 276 270 271 269 259 265 267 266 285 298 302 303 308 295 285 287 282 276 271 267 267 270 271 276 283 288 293 300 305 321 330 326 312 299 302 297 292 286 283 285
201 204 207 nan nan nan nan nan 209 209 207 207 205 210 224 236 250 247 240 242 256 277 276 260 221 195 225 282 292 297 300 292 276 38 48 334 264 248 255 250 253 259 261 264 265 266 266 271 274 273 266 263 265 276 299 299 302 301 296 289 285 284 283 277 267 260 260 260 264 288 290 291 301 309 324 328 330 310 297 298 294 289 283 280 276
nan nan 203 206 207 207 207 209 212 212 209 205 204 209 213 222 240 250 246 238 247 281 288 279 234 208 228 243 258 273 283 285 291 313 220 251 270 270 260 253 248 249 253 254 258 261 263 264 270 274 283 276 261 268 296 303 306 303 298 284 283 282 285 280 269 260 257 254 253 260 278 288 297 309 323 326 327 313 300 299 295 288 285 279 279
nan nan nan nan nan 207 210 211 209 205 203 202 200 205 210 212 222 235 241 245 239 251 278 271 236 222 221 226 241 259 265 270 280 263 242 237 237 244 258 262 254 249 250 254 259 263 269 264 264 269 267 273 272 261 278 302 301 303 307 288 278 280 284 286 271 261 256 253 252 254 264 283 299 306 319 326 329 326 312 299 293 294 287 285 274
nan nan nan nan nan 208 208 208 208 204 201 200 199 200 203 216 218 215 214 209 200 206 228 233 233 231 220 219 238 255 265 263 259 255 251 243 241 250 257 262 265 258 254 254 263 265 268 266 265 264 265 268 270 268 271 298 299 302 307 297 280 287 286 279 270 260 257 257 254 256 259 279 305 315 319 324 325 328 327 304 297 295 297 287 271
nan nan nan nan nan nan 203 204 205 204 203 205 207 207 209 213 217 206 194 192 194 209 227 232 233 230 224 223 232 241 250 250 250 251 255 256 252 254 253 259 259 262 266 262 259 263 268 268 266 266 264 265 272 289 268 289 300 304 306 311 285 288 287 278 268 255 254 252 254 257 262 281 311 322 327 324 323 319 328 299 298 311 310 288 278
nan nan nan nan nan 204 203 202 203 203 205 207 207 204 201 202 202 200 193 194 205 209 220 236 242 241 235 236 238 245 243 240 245 255 261 261 256 256 253 254 259 262 266 267 263 263 267 268 267 265 262 263 265 273 289 282 296 302 305 308 311 291 294 277 266 256 254 253 253 256 262 284 301 315 320 322 319 322 301 299 319 304 298 296 284
nan nan nan nan nan 206 203 202 203 203 205 207 210 209 205 202 197 196 199 201 210 219 221 223 229 242 245 244 248 252 248 241 247 250 252 256 258 257 253 250 255 258 260 265 262 261 266 269 271 267 264 261 259 263 279 295 291 303 299 308 315 307 292 274 261 247 247 248 250 255 263 286 299 308 316 320 323 318 305 320 316 308 297 289 279
nan nan nan nan nan 200 201 200 201 201 204 207 211 211 206 199 196 197 202 210 218 225 226 223 226 234 246 250 255 256 254 248 245 250 252 254 258 259 255 252 254 256 258 261 263 264 267 268 267 267 264 260 257 259 264 282 297 297 301 303 312 313 290 289 265 242 243 247 253 264 271 285 294 302 313 320 316 322 329 321 314 306 292 277 276
nan nan nan nan 200 199 198 197 198 201 203 207 210 213 207 200 195 193 197 214 228 232 231 229 230 235 240 250 259 259 259 257 253 249 251 251 256 258 256 250 250 253 256 259 261 265 266 267 265 263 260 258 257 256 261 266 272 282 284 298 309 307 293 281 277 251 250 255 261 270 268 262 267 280 285 285 285 292 308 312 301 287 276 274 273
nan nan nan 201 200 199 197 196 197 203 207 207 207 212 211 204 198 196 195 211 229 238 239 236 238 240 244 249 258 254 255 257 256 250 248 249 252 254 254 250 251 255 260 260 260 262 265 265 263 257 254 253 254 256 258 260 263 263 259 259 260 258 268 254 235 231 239 247 248 253 262 270 268 280 281 278 279 279 276 275 272 273 274 274 273
nan nan nan 198 201 203 206 207 207 208 210 207 208 212 212 207 203 203 199 215 230 237 242 244 247 245 245 248 251 264 265 255 256 254 250 249 251 255 255 253 255 261 264 262 259 261 264 265 260 253 250 250 252 255 259 261 259 258 256 252 251 250 253 252 248 241 244 249 254 255 261 263 263 264 267 267 270 271 273 274 275 273 272 269 268
nan nan 199 204 208 210 213 213 211 210 210 210 209 211 213 210 207 207 204 220 233 235 240 246 248 248 250 250 248 249 251 253 254 254 252 253 255 254 251 244 245 246 250 254 256 256 260 260 257 255 256 254 253 256 256 261 263 269 266 256 252 254 255 253 260 268 255 252 259 263 264 265 266 268 270 271 273 273 273 274 275 274 272 271 269
nan 202 205 209 211 213 213 212 212 210 209 208 209 212 213 211 211 210 209 215 233 237 238 242 245 249 251 250 247 246 246 248 252 254 253 242 231 234 233 243 244 253 253 256 249 246 252 254 256 255 260 263 260 257 260 271 273 275 276 282 277 275 276 270 272 284 276 267 267 268 268 269 271 272 274 274 275 275 275 276 277 278 277 275 276
210 208 210 213 213 212 210 210 212 209 207 207 207 210 214 214 213 212 212 212 225 237 238 238 245 246 250 251 250 249 247 246 248 251 250 252 247 238 232 229 220 220 252 258 254 251 251 255 253 252 254 259 250 249 261 271 272 274 277 278 278 280 283 288 281 269 263 269 268 268 267 267 270 272 274 276 275 276 277 277 281 281 282 282 284